Tracking 28790 objects as of 19-Apr-2024
HD Live streaming from Space Station
objects crossing your sky now

COSMOS 2251 DEB

Track COSMOS 2251 DEB now!
10-day predictions


NORAD ID: 35594
Int'l Code: 1993-036AMM
Perigee: 644.5 km
Apogee: 712.4 km
Inclination: 73.8 °
Period: 98.2 minutes
Semi major axis: 7049 km
RCS: 0.0079 m2 (small)
Launch date: June 16, 1993
Source: Commonwealth of Independent States (former USSR) (CIS)
Launch site: PLESETSK MISSILE AND SPACE COMPLEX (PKMTR)

Note: This is SATELLITE DEBRIS
Your satellite tracking list
Your tracking list is empty




NASA's NSSDC Master Catalog

Two Line Element Set (TLE):
1 35594U 93036AMM 24109.30010903  .00019429  00000-0  34196-2 0  9999
2 35594  73.8158 227.0488 0048149  90.0396 270.6290 14.66788020792729
Source of the keplerian elements: AFSPC